STARLINK-4603, 53625

Orbit data source: Space-Track

STARLINK-4603, 53625 is a payload satellite owned by SpaceX/Seattle (US) in LEO that was launched on Sun, 28 Aug 2022 UTC via an FALCON 9 launch vehicle from the Air Force Eastern Test Range (AFETR). Payloads include a variety of satellites, spacecraft, and rockets equipped with specific instruments for various scientific and technological missions. These include communications satellites like Starlink; space stations such as the ISS; scientific satellites like the Hubble; Earth observation satellites from companies like Planet Labs, Umbra, and HawkEye 360; GPS; miniature CubeSats for education and research; and military/defense satellites.

Not visible in the next 10 days
STARLINK-4603 details
Identifier
53625, 2022-104AP
Orbit
LEO
Last TLE update3 days ago
Origin
Flag of USSpaceX/Seattle (US)
ManufacturerSpaceX/Seattle
MissionPartially operational Commercial Communications
Bus & MotorSTARLINK, Unknown motor
Mass300 kg wet, ~290 kg dry
Launch date (UTC)
2022-08-28 (2 years ago)
Launch vehicle
FALCON 9
Launch site
Air Force Eastern Test Range (AFETR)
Object type
Payload
Rocket body
Debris
Shape & HBRBox + 1 Pan, 8.86 m
Radar Cross Section13.562 m², Large (>1 m²)

Expand to show TLE details & history

TLE from 3 days ago
0 STARLINK-4603
1 53625U 22104AP  24359.12189887  .00863617  42808-3  91025-3 0  9993
2 53625  53.2103  34.8062 0001542  33.1850 326.9282 16.09802741128788
Epoch: 2024-12-24T02:55Z
Definitive object data (Epoch: 2024-12-24T02:55:32.062Z)
Latitude-0.00004°
Longitude-102.21196°
Altitude247.465 km
Speed7.76 km/s
True Right ascension02h 19m 13s
True Declination0° 00' 00"
Sunlit
Object was in full shadow at TLE epoch
Visualization TLE readout
Latitude39.33495°
Longitude-78.36101°
Altitude235.439 km
Speed7.771 km/s
Apparent Right ascension04h 26m 22s
Apparent Declination0° 34' 30"
Sunlit
Object is in full shadow
Visualization observer readout
Local Sidereal Time16:59:34
Azimuth12.661° NNE
Elevation-48.805°
Doppler factor1
Orbital elements
Apogee altitude248.663 km
Perigee altitude246.619 km
Semi-major axis6,625.778 km
Eccentricity0.0001542
Inclination53.2103°
RAAN34.8062°
Arg. of periapsis33.185°
True anomaly326.91856°
Mean anomaly326.9282°
Eccentric anomaly326.92338°
Mean motion4.02428 °/min
BSTAR0.00091025
Orbital period89.46 mins
Loading maneuver chart data...
Loading historical data...
Loading historical data...
Loading historical data...
Loading historical data...
Loading historical data...
Loading historical data...
Loading historical data...

STARLINK-4603 Visibility forecast

Observer location: undefined°, undefined

STARLINK-4603 is not visible in the next 10 days
Span
Click to sort rows by Start time (UTC) header in descending order
Start Az.
Max El. time (UTC)
Max El. Az.
Max El.
End time (UTC)
End Az.
|